Location: Unspecified
(0.0000°N, 0.0000°E)
Time: 06:49:57
(UTC+00:00)

Envisat - Pass Details

Date: 22 July 2017
Orbit: 764 x 766 km, 98.2° (Epoch: 20 July)

Event Time Altitude Azimuth Distance (km) Brightness Sun altitude
Exits shadow 19:23:12 11° 54° (NE) 2,224 5.1 -18.0°
Drops below altitude 10° 19:23:37 10° 49° (NE) 2,293 5.2 -18.1°
Sets 19:27:09 0° 23° (NNE) 3,215 6.2 -18.9°
